This demonstration page uses our WeatherBlox Daily Observations layout. Learn more.

Left ArrowRight Arrow

36.17497, -115.13722

Hourly Observations for July 31, 2020

Temp ( °F °C ) Dew Point ( °F °C ) Humidity (%) Winds ( mph kmh ) Pressure ( in mb ) Visibility ( mi km ) Precip ( " mm )
12:53 am 00:53 Clear 94 34.4 36 2.2 13 13 W 3 6 29.84 1011 10 16 0.00 0.00
1:53 am 01:53 Clear 92 33.3 38 3.3 15 15 WNW 8 13 29.83 1010 10 16 0.00 0.00
2:53 am 02:53 Clear 94 34.4 39 3.9 15 15 W 6 9 29.83 1010 10 16 0.00 0.00
3:53 am 03:53 Clear 90 32.2 39 3.9 17 17 N 3 6 29.83 1010 10 16 0.00 0.00
4:53 am 04:53 Clear 88 31.1 40 4.4 18 18 Calm 29.85 1011 10 16 0.00 0.00
5:53 am 05:53 Sunny 87 30.6 37 2.8 17 17 NE 5 7 29.87 1011 10 16 0.00 0.00
6:53 am 06:53 Sunny 88 31.1 41 5 19 19 N 5 7 29.89 1012 10 16 0.00 0.00
7:53 am 07:53 Sunny 94 34.4 43 6.1 17 17 NW 6 9 29.90 1012 10 16 0.00 0.00
8:53 am 08:53 Sunny 99 37.2 40 4.4 13 13 Calm 29.90 1013 10 16 0.00 0.00
9:53 am 09:53 Sunny 102 38.9 41 5 12 12 Calm 29.90 1013 10 16 0.00 0.00
10:53 am 10:53 Sunny 105 40.6 42 5.6 12 12 N 3 6 29.89 1012 10 16 0.00 0.00
11:53 am 11:53 Sunny 107 41.7 43 6.1 11 11 SW 7 11 29.88 1012 10 16 0.00 0.00
12:53 pm 12:53 Sunny 111 43.9 44 6.7 10 10 SW 12 19 29.85 1011 10 16 0.00 0.00
1:53 pm 13:53 Sunny 113 45 44 6.7 10 10 SW 17 28 29.84 1010 10 16 0.00 0.00
2:53 pm 14:53 Sunny 112 44.4 43 6.1 10 10 SSW 16 26 29.81 1010 10 16 0.00 0.00
3:53 pm 15:53 Sunny 113 45 42 5.6 9 9 WSW 15 24 29.80 1009 10 16 0.00 0.00
4:53 pm 16:53 Sunny 113 45 41 5 9 9 SW 17 28 29.78 1008 10 16 0.00 0.00
5:53 pm 17:53 Sunny 112 44.4 37 2.8 8 8 WSW 21 33 29.76 1008 10 16 0.00 0.00
6:53 pm 18:53 Sunny 110 43.3 39 3.9 9 9 WSW 17 28 29.76 1008 10 16 0.00 0.00
7:53 pm 19:53 Clear 108 42.2 40 4.4 10 10 WSW 17 28 29.76 1008 10 16 0.00 0.00
8:53 pm 20:53 Clear 106 41.1 40 4.4 10 10 WSW 12 19 29.78 1008 10 16 0.00 0.00
9:53 pm 21:53 Clear 103 39.4 41 5 12 12 SW 6 9 29.78 1009 10 16 0.00 0.00
10:53 pm 22:53 Clear 101 38.3 43 6.1 14 14 W 7 11 29.78 1009 10 16 0.00 0.00
11:53 pm 23:53 Clear 97 36.1 42 5.6 15 15 Calm 29.79 1009 10 16 0.00 0.00

Powered by AerisWeather